Location: ČR
(50.0000°N, 15.0000°E)
Time: 00:32:48
(UTC+00:00)

DELFI C3 - Visible Passes

Search period start: 07 December 2021 00:00
Search period end: 17 December 2021 00:00
Orbit: 529 x 543 km, 97.4° (Epoch: 06 December)

Date Brightness Start Highest point End Pass type
(mag) Time Alt. Az. Time Alt. Az. Time Alt. Az.
08 Dec ? 06:06:07 10° NE 06:09:10 21° E 06:12:10 10° SE visible
09 Dec ? 05:57:50 10° NE 06:00:30 17° E 06:03:10 10° SE visible
10 Dec ? 05:49:38 10° NE 05:51:51 14° E 05:54:02 10° ESE visible
11 Dec ? 05:41:40 10° ENE 05:43:10 12° E 05:44:39 10° ESE visible
